#timestamp,LO_Frequency,Hit,StdDev 
1660006815.0,286047001.4,N
1660006815.9,286047001.4,N
1660006835.8,286047002.5,Y
1660006855.6,286047000.3,P
1660006875.5,286047000.7,N
1660006895.3,286047001.0,N
1660006915.1,286047000.8,N
1660006935.9,286046998.7,Y
1660006955.7,286046999.2,P
1660006975.6,286046999.6,N
1660006995.4,286046999.5,N
1660007015.2,286046996.6,Y
1660007035.1,286046997.0,P
1660007036.0,286046997.0,N
1660007055.8,286046999.6,N
1660007075.7,286046999.6,N
1660007095.5,286046999.5,N
1660007115.3,286047000.7,N
1660007135.2,286046999.8,N
1660007155.9,286046999.9,N
1660007175.7,286047000.5,N
1660007195.6,286047000.3,N
1660007215.4,286046999.9,N
1660007235.2,286046999.7,N
1660007255.1,286046999.9,N
1660007256.0,286046999.9,N
1660007275.8,286047002.7,N
1660007295.7,286047000.1,N
1660007315.5,286047002.8,N
1660007335.3,286047002.1,N
1660007355.2,286047001.8,N
1660007375.0,286047000.1,N
1660007375.9,286047000.1,N
1660007395.8,286047000.2,N
1660007415.6,286047000.1,N
1660007435.4,286046999.7,N
1660007455.3,286047000.2,N
1660007475.1,286046999.8,N
1660007495.9,286047002.8,N
1660007515.7,286047000.0,N
1660007535.5,286046999.8,N
1660007555.4,286046999.7,N
1660007575.2,286047001.5,N
1660007595.0,286047004.2,Y
1660007595.9,286047004.2,P
1660007615.8,286047001.3,N
1660007635.6,286047001.5,N
1660007655.5,286047001.9,N
1660007675.3,286047001.9,N
1660007695.1,286047001.6,N
1660007715.9,286047003.8,Y
1660007735.7,286047002.4,P
1660007755.5,286046999.7,N
1660007775.4,286047000.9,N
1660007795.2,286047000.9,N
1660007815.1,286047000.2,N
1660007816.0,286047000.2,N
1660007835.8,286047000.0,N
1660007855.6,286047000.4,N
1660007875.5,286046999.9,N
1660007895.3,286046999.8,N
1660007915.1,286047000.8,N
1660007935.9,286047000.7,N
1660007955.7,286047000.4,N
1660007975.6,286047000.1,N
1660007995.4,286046999.8,N
1660008015.2,286046999.9,N
1660008035.1,286047002.4,Y
1660008036.0,286047002.4,P
1660008055.8,286047000.9,N
1660008075.7,286047000.8,N
1660008095.5,286047000.8,N
1660008115.3,286047001.0,N
1660008135.2,286047000.5,N
1660008155.0,286047000.9,N
1660008155.9,286047000.9,N
1660008175.8,286047000.6,N
1660008195.6,286047000.4,N
1660008215.4,286047000.0,N
1660008235.3,286047001.0,N
1660008255.1,286046998.5,N
1660008275.9,286046998.4,N
1660008295.7,286046998.1,N
1660008315.5,286046998.9,N
1660008335.4,286046999.5,N
1660008355.2,286046997.0,N
1660008375.0,286046996.8,N
1660008375.9,286046996.8,N
1660008395.8,286046997.7,N
1660008415.6,286046997.3,N
1660008435.5,286046996.6,N
1660008455.3,286046997.6,N
1660008475.1,286046997.6,N
1660008495.9,286046997.5,N
1660008515.7,286046994.9,Y
1660008535.6,286046998.0,P
1660008555.4,286046997.1,P
1660008575.2,286046997.5,N
1660008595.1,286046998.0,N
1660008596.0,286046998.0,N
1660008615.8,286046995.0,Y
1660008635.6,286046999.6,P
1660008655.5,286046996.9,P
1660008675.3,286046997.0,N
1660008695.2,286046999.5,N
1660008715.9,286046996.8,N
1660008735.7,286046996.9,N
1660008755.6,286046997.3,N
1660008775.4,286046997.7,N
1660008795.2,286046995.4,Y
1660008815.1,286046999.2,P
1660008816.0,286046999.2,N
1660008835.8,286046998.7,N
1660008855.7,286046996.5,Y
1660008875.5,286047000.8,P
1660008895.3,286046998.8,N
1660008915.2,286046998.5,N
1660008935.0,286046998.3,N
1660008935.9,286046998.3,N
1660008955.8,286046998.6,N
1660008975.6,286046998.2,N
1660008995.4,286046998.4,N
1660009015.3,286046999.4,N
1660009035.1,286046999.4,N
1660009055.9,286046998.3,N
1660009075.7,286046998.7,N
1660009095.5,286046998.5,N
1660009115.4,286046998.6,N
1660009135.2,286046998.3,N
1660009155.0,286046998.2,N
1660009155.9,286046998.2,N
1660009175.8,286046998.9,N
1660009195.6,286046999.0,N
1660009215.5,286046998.8,N
1660009235.3,286046999.0,N
1660009255.1,286046999.3,N
1660009275.9,286046999.1,N
1660009295.7,286046999.4,N
1660009315.5,286046999.4,N
1660009335.4,286046999.2,N
1660009355.2,286046996.5,Y
1660009375.1,286046998.6,P
1660009376.0,286046998.6,P
1660009395.8,286046998.6,P
1660009415.6,286046998.5,Y
1660009435.5,286047000.2,P
1660009455.3,286046999.8,N
1660009475.2,286047000.9,N
1660009495.9,286047000.7,N
1660009515.7,286047001.0,N
1660009535.6,286046999.9,N
1660009555.4,286047000.3,N
1660009575.2,286046999.9,N
1660009595.1,286047000.3,N
1660009596.0,286047000.3,N
1660009615.8,286047000.6,N
1660009635.7,286047000.3,N
1660009655.5,286046999.9,N
1660009675.3,286047000.4,N
1660009695.2,286047000.5,N
1660009715.0,286047000.6,N
1660009715.9,286047000.6,N
1660009735.7,286047001.1,N
1660009755.6,286047000.8,N
1660009775.4,286047001.1,N
1660009795.3,286047001.1,N
1660009815.1,286047001.2,N
1660009816.0,286047001.2,N
1660009835.8,286047001.0,N
1660009855.7,286046998.3,Y
1660009875.5,286046999.3,P
1660009895.4,286046998.9,N
1660009915.2,286046999.3,N
1660009935.0,286046998.3,N
1660009935.9,286046998.3,N
1660009955.8,286046998.6,N
1660009975.6,286046998.9,N
1660009995.4,286046999.3,N
1660010015.3,286046998.4,N
1660010035.1,286046999.4,N
1660010055.9,286046999.3,N
1660010075.7,286046999.3,N
1660010095.5,286046998.3,Y
1660010115.4,286047000.6,P
1660010135.2,286047001.1,N
1660010155.1,286046998.5,N
1660010156.0,286046998.5,N
1660010175.8,286047001.0,N
1660010195.6,286046998.2,N
1660010215.5,286046998.5,N
1660010235.3,286046998.1,N
1660010255.1,286046998.5,N
1660010275.9,286046998.7,N
1660010295.7,286046998.7,N
1660010315.6,286046998.5,N
1660010335.4,286046999.0,N
1660010355.2,286046998.4,N
1660010375.1,286046998.3,N
1660010376.0,286046998.3,N
1660010395.8,286046999.3,N
